This is the latest recevied weather packets stored in our database for station/object E23JWE-1. If no packets are shown the sender has not sent any weather packets the latest 10 day(s).
| Time | Temp. | Humidity | Pressure | Rain* | Wind** | Luminosity | Snow |
|---|---|---|---|---|---|---|---|
| 1777877968 | 32.22° C | 95% | 1008 hPa | - | - | 35 W/m² | - |
| 1777876143 | 32.22° C | 97% | 1009 hPa | - | - | 36 W/m² | - |
| 1777874317 | 32.22° C | 99% | 1010 hPa | - | - | 35 W/m² | - |
| 1777872491 | 32.22° C | 99% | 1010 hPa | - | - | 37 W/m² | - |
| 1777870666 | 32.22° C | 99% | 1010 hPa | - | - | 38 W/m² | - |
| 1777868841 | 31.67° C | 99% | 1011 hPa | - | - | 41 W/m² | - |
| 1777867015 | 31.67° C | 99% | 1011 hPa | - | - | 34 W/m² | - |
| 1777865189 | 31.67° C | 99% | 1011 hPa | - | - | 34 W/m² | - |
| 1777863364 | 31.11° C | 99% | 1011 hPa | - | - | 37 W/m² | - |
| 1777861538 | 31.11° C | 99% | 1011 hPa | - | - | 34 W/m² | - |
| 1777859712 | 31.11° C | 99% | 1011 hPa | - | - | 30 W/m² | - |
| 1777857887 | 30.56° C | 99% | 1010 hPa | - | - | 21 W/m² | - |
| 1777856062 | 30.56° C | 99% | 1010 hPa | - | - | 18 W/m² | - |
| 1777854236 | 30.56° C | 99% | 1009 hPa | - | - | 11 W/m² | - |
| 1777852410 | 30° C | 99% | 1009 hPa | - | - | 6 W/m² | - |
| 1777850584 | 30° C | 99% | 1009 hPa | - | - | 1 W/m² | - |
| 1777848759 | 30° C | 99% | 1009 hPa | - | - | 0 W/m² | - |
| 1777846933 | 30.56° C | 99% | 1008 hPa | - | - | 0 W/m² | - |
| 1777843915 | 30.56° C | 99% | 1008 hPa | - | - | 0 W/m² | - |
| 1777842089 | 30.56° C | 99% | 1008 hPa | - | - | 0 W/m² | - |
| 1777840264 | 30.56° C | 99% | 1008 hPa | - | - | 0 W/m² | - |
| 1777838438 | 30.56° C | 99% | 1008 hPa | - | - | 0 W/m² | - |
| 1777836612 | 31.11° C | 99% | 1009 hPa | - | - | 0 W/m² | - |
| 1777834787 | 31.11° C | 99% | 1009 hPa | - | - | 0 W/m² | - |
| 1777832961 | 30.56° C | 99% | 1009 hPa | - | - | 0 W/m² | - |
* Rain since midnight (hover to see other rain measurements)
** Current wind speed in m/s (hover to see current wind gust speed)